Change the Weather History Date:

Friday, November 29, 2013

  Actual Average Record
Temperature  
Mean Temperature 22 °F -  
Max Temperature 33 °F 39 °F 62 °F (1998)
Min Temperature 10 °F 26 °F 10 °F (2013)
Degree Days  
Heating Degree Days 44    
Moisture  
Dew Point 18 °F    
Average Humidity 85    
Maximum Humidity 96    
Minimum Humidity 59    
Precipitation  
Precipitation 0.00 in - - ()
Sea Level Pressure  
Sea Level Pressure 30.55 in    
Wind  
Wind Speed 4 mph (WSW)    
Max Wind Speed 9 mph    
Max Gust Speed -    
Visibility 9 miles    
Events Snow    
Averages and records for this station are not official NWS values.
T = Trace of Precipitation, MM = Missing Value Source: NWS Daily Summary

Daily Weather History Graph

Daily Weather History Graph

Search for Another Location

Airport or City:

Trip Planner

Search our weather history database for the weather conditions in past years. The results will help you decide how hot, cold, wet, or windy it might be!

Date:

Astronomy

Nov. 29, 2013 Rise Set
Actual Time 7:47 AM EST 4:56 PM EST
Civil Twilight 7:15 AM EST 5:28 PM EST
Nautical Twilight 6:38 AM EST 6:04 PM EST
Astronomical Twilight 6:04 AM EST 6:39 PM EST
Moon 3:44 AM EST (11/29) 2:46 PM EST (11/29)
Length of Visible Light 10h 13m
Length of Day
9h 08m
Waning Crescent, 14% of the Moon is Illuminated
Nov 29
Waning Crescent
Dec 2
New
Dec 9
First Quarter
Dec 17
Full
Dec 25
Last Quarter

Hourly Weather History & Observations

Time (EST) Temp. Windchill Dew Point Humidity Pressure Visibility Wind Dir Wind Speed Gust Speed Precip Events Conditions
12:13 AM 18.3 °F 10.2 °F 14.5 °F 85% 30.42 in 10.0 mi NW 5.8 mph - N/A   Overcast
12:34 AM 15.1 °F 7.7 °F 11.8 °F 87% 30.42 in 10.0 mi NW 4.6 mph - N/A   Scattered Clouds
12:54 AM 16.0 °F - 13.5 °F 90% 30.42 in 10.0 mi Calm Calm - N/A   Clear
1:14 AM 15.6 °F 10.0 °F 12.9 °F 89% 30.43 in 10.0 mi NW 3.5 mph - N/A   Clear
1:34 AM 15.4 °F - 13.1 °F 90% 30.43 in 10.0 mi Calm Calm - N/A   Clear
1:54 AM 14.9 °F - 12.2 °F 89% 30.44 in 10.0 mi Calm Calm - N/A   Clear
2:14 AM 12.2 °F 2.9 °F 9.1 °F 88% 30.44 in 10.0 mi NW 5.8 mph - N/A   Clear
2:34 AM 14.5 °F 4.6 °F 12.0 °F 90% 30.45 in 10.0 mi NNW 6.9 mph - N/A   Scattered Clouds
2:54 AM 14.7 °F 7.3 °F 11.7 °F 88% 30.46 in 10.0 mi NNW 4.6 mph - N/A   Mostly Cloudy
3:14 AM 14.0 °F 5.1 °F 10.9 °F 88% 30.47 in 10.0 mi NNW 5.8 mph - N/A   Mostly Cloudy
3:34 AM 12.6 °F 4.8 °F 9.7 °F 88% 30.47 in 10.0 mi NW 4.6 mph - N/A   Scattered Clouds
3:54 AM 12.2 °F 1.7 °F 9.5 °F 89% 30.47 in 10.0 mi NNW 6.9 mph - N/A   Clear
4:13 AM 13.1 °F 2.8 °F 10.4 °F 89% 30.48 in 10.0 mi NNW 6.9 mph - N/A   Clear
4:34 AM 13.3 °F 4.2 °F 10.4 °F 88% 30.48 in 10.0 mi NW 5.8 mph - N/A   Clear
4:54 AM 13.1 °F 7.1 °F 10.2 °F 88% 30.49 in 10.0 mi WNW 3.5 mph - N/A   Clear
5:13 AM 13.5 °F 7.5 °F 10.2 °F 87% 30.50 in 10.0 mi WNW 3.5 mph - N/A   Clear
5:34 AM 12.9 °F 6.9 °F 10.0 °F 88% 30.51 in 10.0 mi NW 3.5 mph - N/A   Clear
5:53 AM 11.3 °F 3.3 °F 9.3 °F 92% 30.51 in 10.0 mi NW 4.6 mph - N/A   Clear
6:14 AM 10.2 °F 3.8 °F 7.5 °F 89% 30.52 in 4.0 mi NW 3.5 mph - N/A   Scattered Clouds
6:34 AM 12.2 °F - 9.5 °F 89% 30.53 in 10.0 mi Calm Calm - N/A   Scattered Clouds
6:53 AM 13.6 °F - 10.8 °F 88% 30.53 in 10.0 mi Calm Calm - N/A   Overcast
7:14 AM 14.0 °F - 11.1 °F 88% 30.54 in 10.0 mi Calm Calm - N/A   Overcast
7:34 AM 14.7 °F 5.9 °F 11.3 °F 86% 30.55 in 10.0 mi NNW 5.8 mph - N/A   Mostly Cloudy
7:53 AM 13.3 °F 5.6 °F 10.0 °F 87% 30.56 in 10.0 mi NW 4.6 mph - N/A   Scattered Clouds
8:14 AM 13.5 °F 7.5 °F 10.4 °F 88% 30.56 in 10.0 mi NW 3.5 mph - N/A   Clear
8:34 AM 13.6 °F - 10.4 °F 87% 30.58 in 10.0 mi Calm Calm - N/A   Scattered Clouds
8:53 AM 16.9 °F 11.5 °F 13.6 °F 87% 30.58 in 10.0 mi NNW 3.5 mph - N/A   Mostly Cloudy
9:14 AM 17.6 °F 10.7 °F 14.0 °F 86% 30.59 in 10.0 mi NNW 4.6 mph - N/A   Overcast
9:34 AM 19.0 °F - 14.9 °F 84% 30.59 in 10.0 mi Calm Calm - N/A   Overcast
9:53 AM 22.1 °F - 16.9 °F 80% 30.60 in 10.0 mi Calm Calm - N/A   Overcast
10:14 AM 23.9 °F - 18.3 °F 79% 30.60 in 7.0 mi Calm Calm - N/A Snow Light Snow
10:34 AM 24.6 °F - 19.6 °F 81% 30.61 in 3.0 mi Calm Calm - N/A Snow Light Snow
10:53 AM 25.7 °F - 21.2 °F 83% 30.61 in 5.0 mi Calm Calm - N/A Snow Light Snow
11:14 AM 26.4 °F - 22.3 °F 84% 30.61 in 7.0 mi Calm Calm - N/A Snow Light Snow
11:34 AM 27.1 °F - 22.5 °F 83% 30.61 in 5.0 mi Calm Calm - N/A Snow Light Snow
11:53 AM 29.5 °F - 25.2 °F 84% 30.61 in 10.0 mi Calm Calm - N/A   Overcast
12:14 PM 30.7 °F - 25.7 °F 82% 30.60 in 10.0 mi Calm Calm - N/A   Mostly Cloudy
12:34 PM 31.8 °F 27.3 °F 26.1 °F 79% 30.60 in 10.0 mi West 4.6 mph - N/A   Mostly Cloudy
12:53 PM 32.4 °F - 25.2 °F 75% 30.59 in 10.0 mi Calm Calm - N/A   Mostly Cloudy
1:14 PM 32.7 °F - 23.5 °F 69% 30.59 in 10.0 mi Calm Calm - N/A   Scattered Clouds
1:34 PM 32.0 °F - 23.0 °F 69% 30.58 in 10.0 mi Calm Calm - N/A   Mostly Cloudy
1:53 PM 32.5 °F 29.3 °F 23.2 °F 68% 30.58 in 10.0 mi SE 3.5 mph - N/A   Mostly Cloudy
2:14 PM 32.9 °F 29.8 °F 24.8 °F 72% 30.58 in 10.0 mi ESE 3.5 mph - N/A   Mostly Cloudy
2:34 PM 32.4 °F 29.1 °F 24.4 °F 73% 30.58 in 10.0 mi East 3.5 mph - N/A   Overcast
2:53 PM 32.7 °F 28.3 °F 24.3 °F 71% 30.58 in 10.0 mi East 4.6 mph - N/A   Mostly Cloudy
3:14 PM 33.1 °F 27.7 °F 23.0 °F 66% 30.57 in 10.0 mi SSW 5.8 mph - N/A   Mostly Cloudy
3:34 PM 32.4 °F 27.9 °F 19.4 °F 59% 30.58 in 10.0 mi SSW 4.6 mph - N/A   Scattered Clouds
3:54 PM 32.2 °F 26.7 °F 20.7 °F 63% 30.58 in 10.0 mi SSW 5.8 mph - N/A   Clear
4:14 PM 31.6 °F 26.0 °F 20.8 °F 64% 30.58 in 10.0 mi South 5.8 mph - N/A   Clear
4:34 PM 30.7 °F 24.9 °F 21.4 °F 68% 30.58 in 10.0 mi South 5.8 mph - N/A   Scattered Clouds
4:54 PM 29.3 °F 25.6 °F 24.1 °F 81% 30.58 in 10.0 mi South 3.5 mph - N/A   Clear
5:14 PM 28.9 °F 22.8 °F 24.3 °F 83% 30.58 in 10.0 mi South 5.8 mph - N/A   Clear
5:34 PM 28.4 °F 20.4 °F 23.4 °F 81% 30.58 in 10.0 mi South 8.1 mph - N/A   Scattered Clouds
5:54 PM 28.0 °F 19.3 °F 23.9 °F 84% 30.59 in 10.0 mi South 9.2 mph - N/A   Mostly Cloudy
6:14 PM 27.3 °F 18.4 °F 24.3 °F 88% 30.60 in 10.0 mi SSW 9.2 mph - N/A   Mostly Cloudy
6:34 PM 26.6 °F 17.5 °F 23.9 °F 90% 30.59 in 10.0 mi SSW 9.2 mph - N/A   Scattered Clouds
6:54 PM 26.4 °F 19.8 °F 23.9 °F 90% 30.59 in 10.0 mi SSW 5.8 mph - N/A   Overcast
7:14 PM 26.2 °F 19.6 °F 23.9 °F 91% 30.59 in 10.0 mi SSW 5.8 mph - N/A   Overcast
7:34 PM 25.7 °F 18.0 °F 23.4 °F 91% 30.59 in 10.0 mi SSW 6.9 mph - N/A   Overcast
7:54 PM 24.8 °F 17.9 °F 22.8 °F 92% 30.58 in 10.0 mi SSW 5.8 mph - N/A   Mostly Cloudy
8:14 PM 24.4 °F 18.6 °F 22.6 °F 93% 30.58 in 10.0 mi SSW 4.6 mph - N/A   Scattered Clouds
8:33 PM 24.4 °F 20.1 °F 22.8 °F 94% 30.58 in 7.0 mi SSW 3.5 mph - N/A   Mostly Cloudy
8:54 PM 24.4 °F 20.1 °F 22.6 °F 93% 30.57 in 7.0 mi South 3.5 mph - N/A   Mostly Cloudy
9:14 PM 24.4 °F 18.6 °F 22.6 °F 93% 30.57 in 7.0 mi SSW 4.6 mph - N/A   Scattered Clouds
9:33 PM 24.1 °F 19.7 °F 22.5 °F 94% 30.56 in 7.0 mi SSW 3.5 mph - N/A   Scattered Clouds
9:54 PM 23.9 °F 19.5 °F 22.3 °F 94% 30.56 in 7.0 mi SSW 3.5 mph - N/A   Mostly Cloudy
10:14 PM 23.0 °F 18.4 °F 21.7 °F 95% 30.55 in 7.0 mi SSW 3.5 mph - N/A   Scattered Clouds
10:34 PM 22.1 °F - 21.2 °F 96% 30.54 in 7.0 mi Calm Calm - N/A   Scattered Clouds
10:54 PM 20.8 °F - 19.8 °F 96% 30.54 in 4.0 mi Calm Calm - N/A   Clear
11:14 PM 21.7 °F - 20.8 °F 96% 30.53 in 7.0 mi Calm Calm - N/A   Clear
11:34 PM 22.5 °F - 21.4 °F 96% 30.53 in 7.0 mi Calm Calm - N/A   Mostly Cloudy
11:54 PM 25.5 °F 21.3 °F 23.2 °F 91% 30.53 in 10.0 mi South 3.5 mph - N/A   Overcast